Location: Corcelles
(46.1547°N, 4.7234°E)
Time: 19:24:15
(UTC+00:00)

Cosmos 614 Rocket - Pass Details

Date: 14 July 2020
Orbit: 732 x 764 km, 74.1° (Epoch: 14 August)

Event Time Altitude Azimuth Distance (km) Brightness Sun altitude
Exits shadow 00:43:18 37° 148° (SSE) 1,144 4.5 -21.0°
Maximum altitude 00:44:45 47° 105° (ESE) 975 4.5 -21.0°
Drops below altitude 10° 00:49:38 10° 32° (NNE) 2,267 7.5 -20.7°
Sets 00:52:05 0° 27° (NNE) 3,200 8.7 -20.6°
